AFL1346 UUEE-ULMK

Flight info

Callsign AFL1346
Flight time 2h 1m
Altitude 37000
Route RILPO3H/24C RILPO T753 DEGOP/K0820F360 T747 ARMAD ARMAD4A
Aircraft B738/M-SDE2E3FGHIJ1RWY/LB1U1

Departure

Time 2026-05-04 18:52
Airport Sheremetyevo International Airport (UUEE)

Arrival

Time 2026-05-04 20:53
Airport Kirovsk-Apatity Airport (ULMK)
Time Latitude Longitude Altitude Speed Heading
2026-05-04 18:46 55.97950 37.42014 642 ft 0 kts 165°
2026-05-04 18:48 55.97938 37.42020 642 ft 5 kts 165°
2026-05-04 18:48 55.97904 37.42036 640 ft 5 kts 165°
2026-05-04 18:48 55.97852 37.42061 638 ft 10 kts 165°
2026-05-04 18:48 55.97805 37.42083 642 ft 6 kts 165°
2026-05-04 18:49 55.97765 37.42103 641 ft 6 kts 165°
2026-05-04 18:49 55.97725 37.42122 638 ft 6 kts 165°
2026-05-04 18:49 55.97695 37.42167 641 ft 6 kts 114°
2026-05-04 18:49 55.97697 37.42263 641 ft 10 kts 75°
2026-05-04 18:50 55.97718 37.42403 640 ft 12 kts 76°
2026-05-04 18:50 55.97738 37.42546 640 ft 12 kts 76°
2026-05-04 18:50 55.97759 37.42687 641 ft 12 kts 76°
2026-05-04 18:50 55.97725 37.42798 641 ft 11 kts 155°
2026-05-04 18:51 55.97650 37.42831 641 ft 11 kts 178°
2026-05-04 18:51 55.97593 37.42752 641 ft 13 kts 248°
2026-05-04 18:51 55.97537 37.42398 640 ft 61 kts 255°
2026-05-04 18:51 55.97368 37.41264 641 ft 126 kts 255°
2026-05-04 18:52 55.97079 37.39458 737 ft 170 kts 252°
2026-05-04 18:52 55.96754 37.37430 1497 ft 164 kts 251°
2026-05-04 18:52 55.96443 37.35593 2487 ft 154 kts 250°
2026-05-04 18:52 55.96143 37.33695 2852 ft 171 kts 252°
2026-05-04 18:53 55.95819 37.31549 3080 ft 192 kts 253°
2026-05-04 18:53 55.95451 37.29134 3234 ft 211 kts 253°
2026-05-04 18:53 55.95048 37.26500 3467 ft 226 kts 253°
2026-05-04 18:53 55.94618 37.23718 3741 ft 243 kts 253°
2026-05-04 18:54 55.94157 37.20755 4255 ft 251 kts 253°
2026-05-04 18:54 55.93689 37.17757 4967 ft 251 kts 254°
2026-05-04 18:54 55.93216 37.14751 5633 ft 253 kts 254°
2026-05-04 18:54 55.92734 37.11706 6301 ft 256 kts 254°
2026-05-04 18:55 55.92253 37.08680 6969 ft 258 kts 254°
2026-05-04 18:55 55.91712 37.02371 8293 ft 265 kts 282°
2026-05-04 18:55 55.92471 36.99364 9016 ft 271 kts 303°
2026-05-04 18:56 55.93840 36.97017 9750 ft 278 kts 321°
2026-05-04 18:56 55.95446 36.95029 10346 ft 284 kts 322°
2026-05-04 18:56 55.97096 36.93055 11045 ft 287 kts 326°
2026-05-04 18:56 55.99004 36.91912 11722 ft 297 kts 352°
2026-05-04 18:57 56.01076 36.92385 12435 ft 307 kts 17°
2026-05-04 18:57 56.02976 36.94212 13149 ft 314 kts 31°
2026-05-04 18:57 56.04749 36.96445 13837 ft 318 kts 36°
2026-05-04 18:57 56.06466 36.98989 14489 ft 323 kts 38°
2026-05-04 18:58 56.08169 37.01659 15108 ft 329 kts 39°
2026-05-04 18:58 56.09936 37.04457 15346 ft 348 kts 39°
2026-05-04 18:58 56.11778 37.07369 15854 ft 357 kts 39°
2026-05-04 18:58 56.13652 37.10318 16533 ft 360 kts 39°
2026-05-04 18:59 56.15547 37.13284 17229 ft 363 kts 38°
2026-05-04 18:59 56.17463 37.16273 17905 ft 367 kts 38°
2026-05-04 18:59 56.19400 37.19289 18497 ft 371 kts 38°
2026-05-04 18:59 56.21334 37.22298 19067 ft 374 kts 38°
2026-05-04 19:00 56.23306 37.25366 19665 ft 377 kts 38°
2026-05-04 19:00 56.25293 37.28461 20225 ft 380 kts 38°
2026-05-04 19:00 56.27305 37.31597 20778 ft 384 kts 38°
2026-05-04 19:00 56.29330 37.34757 21343 ft 387 kts 38°
2026-05-04 19:01 56.31371 37.37948 21892 ft 391 kts 38°
2026-05-04 19:01 56.33458 37.41213 22045 ft 405 kts 38°
2026-05-04 19:01 56.35625 37.44605 22216 ft 418 kts 39°
2026-05-04 19:01 56.37835 37.48075 22587 ft 424 kts 39°
2026-05-04 19:02 56.40033 37.51534 23138 ft 426 kts 39°
2026-05-04 19:02 56.42271 37.55064 23632 ft 428 kts 39°
2026-05-04 19:02 56.44524 37.58621 24021 ft 432 kts 39°
2026-05-04 19:02 56.46792 37.62207 24429 ft 434 kts 39°
2026-05-04 19:03 56.49071 37.65816 24854 ft 437 kts 39°
2026-05-04 19:03 56.51361 37.69449 25263 ft 439 kts 39°
2026-05-04 19:03 56.53662 37.73104 25655 ft 442 kts 39°
2026-05-04 19:03 56.55978 37.76790 26032 ft 444 kts 39°
2026-05-04 19:04 56.58306 37.80501 26461 ft 445 kts 39°
2026-05-04 19:04 56.60627 37.84208 27008 ft 443 kts 39°
2026-05-04 19:04 56.62902 37.87849 27586 ft 441 kts 39°
2026-05-04 19:04 56.65201 37.91533 28100 ft 440 kts 39°
2026-05-04 19:05 56.67494 37.95213 28593 ft 440 kts 39°
2026-05-04 19:05 56.69784 37.98893 29085 ft 439 kts 39°
2026-05-04 19:05 56.72070 38.02576 29602 ft 438 kts 39°
2026-05-04 19:05 56.74344 38.06243 30067 ft 437 kts 39°
2026-05-04 19:06 56.76614 38.09911 30475 ft 436 kts 39°
2026-05-04 19:06 56.78875 38.13571 30904 ft 434 kts 39°
2026-05-04 19:06 56.81097 38.17174 31343 ft 432 kts 39°
2026-05-04 19:06 56.83342 38.20817 31726 ft 431 kts 39°
2026-05-04 19:07 56.85582 38.24460 32090 ft 431 kts 39°
2026-05-04 19:07 56.87826 38.28107 32420 ft 431 kts 38°
2026-05-04 19:07 56.90093 38.31700 32699 ft 433 kts 37°
2026-05-04 19:07 56.92404 38.35301 32760 ft 440 kts 37°
2026-05-04 19:08 56.97139 38.42652 32901 ft 452 kts 37°
2026-05-04 19:08 57.01960 38.50190 33026 ft 464 kts 38°
2026-05-04 19:09 57.04426 38.54069 33130 ft 468 kts 38°
2026-05-04 19:09 57.06904 38.57982 33353 ft 470 kts 38°
2026-05-04 19:09 57.09376 38.61894 33711 ft 468 kts 38°
2026-05-04 19:09 57.11836 38.65797 34080 ft 465 kts 38°
2026-05-04 19:10 57.14275 38.69672 34426 ft 462 kts 38°
2026-05-04 19:10 57.16706 38.73538 34720 ft 461 kts 38°
2026-05-04 19:10 57.21581 38.81305 34812 ft 466 kts 38°
2026-05-04 19:11 57.26448 38.89092 34799 ft 464 kts 38°
2026-05-04 19:11 57.31287 38.96866 34803 ft 459 kts 38°
2026-05-04 19:12 57.38486 39.08476 34804 ft 457 kts 38°
2026-05-04 19:13 57.43268 39.16224 34804 ft 456 kts 38°
2026-05-04 19:13 57.48016 39.23943 34803 ft 457 kts 38°
2026-05-04 19:14 57.52799 39.31735 34804 ft 458 kts 38°
2026-05-04 19:14 57.57593 39.39568 34802 ft 459 kts 38°
2026-05-04 19:15 57.62403 39.47454 34799 ft 461 kts 38°
2026-05-04 19:15 57.67185 39.55328 34798 ft 462 kts 38°
2026-05-04 19:16 57.72007 39.63296 34813 ft 463 kts 38°
2026-05-04 19:16 57.76839 39.71311 34799 ft 464 kts 38°
2026-05-04 19:17 57.81606 39.79250 34452 ft 451 kts 38°
2026-05-04 19:17 57.83965 39.83125 33975 ft 448 kts 33°
2026-05-04 19:17 57.86583 39.85844 33834 ft 429 kts 14°
2026-05-04 19:17 57.89515 39.87068 33843 ft 426 kts
2026-05-04 19:18 57.92420 39.86915 33802 ft 424 kts 346°
2026-05-04 19:18 57.98263 39.84749 33801 ft 433 kts 343°
2026-05-04 19:19 58.04183 39.82393 33801 ft 434 kts 343°
2026-05-04 19:19 58.10099 39.80135 33778 ft 433 kts 344°
2026-05-04 19:20 58.15955 39.77946 33779 ft 431 kts 344°
2026-05-04 19:20 58.21819 39.75753 33776 ft 429 kts 344°
2026-05-04 19:21 58.27671 39.73553 33781 ft 428 kts 344°
2026-05-04 19:21 58.33500 39.71354 33774 ft 427 kts 344°
2026-05-04 19:22 58.39282 39.69151 33777 ft 426 kts 344°
2026-05-04 19:22 58.45095 39.66921 33773 ft 426 kts 344°
2026-05-04 19:23 58.50919 39.64679 33774 ft 427 kts 343°
2026-05-04 19:23 58.56744 39.62431 33775 ft 428 kts 343°
2026-05-04 19:24 58.62548 39.60184 33768 ft 429 kts 343°
2026-05-04 19:24 58.68403 39.57910 33766 ft 430 kts 343°
2026-05-04 19:25 58.74281 39.55709 33767 ft 433 kts 347°
2026-05-04 19:25 58.80323 39.54725 33757 ft 437 kts 351°
2026-05-04 19:26 58.86389 39.53823 33768 ft 437 kts 349°
2026-05-04 19:26 58.92413 39.52832 33754 ft 438 kts 349°
2026-05-04 19:27 58.98477 39.51825 33752 ft 438 kts 349°
2026-05-04 19:27 59.04543 39.50820 33754 ft 437 kts 349°
2026-05-04 19:28 59.10602 39.49816 33749 ft 437 kts 349°
2026-05-04 19:28 59.16615 39.48815 33753 ft 436 kts 349°
2026-05-04 19:29 59.22664 39.47800 33754 ft 437 kts 349°
2026-05-04 19:29 59.28718 39.46779 33746 ft 436 kts 349°
2026-05-04 19:30 59.34765 39.45757 33737 ft 436 kts 349°
2026-05-04 19:30 59.40765 39.44738 33739 ft 436 kts 349°
2026-05-04 19:31 59.46806 39.43709 33731 ft 436 kts 349°
2026-05-04 19:31 59.52845 39.42677 33734 ft 436 kts 349°
2026-05-04 19:32 59.58885 39.41639 33720 ft 436 kts 348°
2026-05-04 19:32 59.64932 39.40599 33725 ft 436 kts 348°
2026-05-04 19:33 59.70930 39.39563 33721 ft 435 kts 348°
2026-05-04 19:33 59.76961 39.38517 33718 ft 435 kts 348°
2026-05-04 19:34 59.82866 39.36619 33714 ft 423 kts 335°
2026-05-04 19:34 59.88387 39.32908 33708 ft 422 kts 335°
2026-05-04 19:35 59.93964 39.29283 33736 ft 422 kts 335°
2026-05-04 19:35 59.99564 39.25668 33718 ft 423 kts 334°
2026-05-04 19:36 60.05170 39.22032 33712 ft 424 kts 334°
2026-05-04 19:36 60.09830 39.18996 33701 ft 424 kts 334°
2026-05-04 19:37 60.16349 39.14735 33678 ft 424 kts 334°
2026-05-04 19:37 60.21955 39.11057 33681 ft 424 kts 334°
2026-05-04 19:38 60.27558 39.07368 33713 ft 424 kts 334°
2026-05-04 19:38 60.32225 39.04282 33682 ft 425 kts 334°
2026-05-04 19:39 60.38762 38.99947 33672 ft 426 kts 334°
2026-05-04 19:39 60.44396 38.96196 33659 ft 426 kts 334°
2026-05-04 19:40 60.49080 38.93067 33660 ft 427 kts 334°
2026-05-04 19:40 60.54726 38.89283 33655 ft 427 kts 334°
2026-05-04 19:41 60.61282 38.84871 33679 ft 427 kts 333°
2026-05-04 19:41 60.66005 38.81671 33653 ft 427 kts 333°
2026-05-04 19:42 60.71600 38.77868 33638 ft 426 kts 333°
2026-05-04 19:42 60.77225 38.74030 33636 ft 426 kts 333°
2026-05-04 19:43 60.82847 38.70180 33626 ft 426 kts 333°
2026-05-04 19:43 60.88464 38.66318 33625 ft 426 kts 333°
2026-05-04 19:44 60.94039 38.62472 33614 ft 425 kts 333°
2026-05-04 19:44 60.99659 38.58578 33619 ft 427 kts 333°
2026-05-04 19:45 61.05286 38.54671 33620 ft 427 kts 332°
2026-05-04 19:45 61.10885 38.50786 33610 ft 427 kts 332°
2026-05-04 19:46 61.16525 38.46861 33604 ft 427 kts 332°
2026-05-04 19:46 61.22153 38.42928 33609 ft 427 kts 332°
2026-05-04 19:47 61.27913 38.39549 33604 ft 434 kts 338°
2026-05-04 19:47 61.33833 38.36929 33602 ft 436 kts 339°
2026-05-04 19:48 61.39733 38.34333 33606 ft 436 kts 339°
2026-05-04 19:48 61.45663 38.31620 33602 ft 437 kts 339°
2026-05-04 19:49 61.51599 38.28848 33597 ft 437 kts 338°
2026-05-04 19:49 61.57538 38.26055 33592 ft 438 kts 338°
2026-05-04 19:50 61.63445 38.23269 33593 ft 438 kts 338°
2026-05-04 19:50 61.69389 38.20456 33629 ft 438 kts 339°
2026-05-04 19:51 61.75347 38.17625 33600 ft 439 kts 339°
2026-05-04 19:51 61.81311 38.14781 33594 ft 439 kts 339°
2026-05-04 19:52 61.87235 38.11944 33594 ft 440 kts 339°
2026-05-04 19:52 61.93205 38.09076 33610 ft 440 kts 338°
2026-05-04 19:53 61.99167 38.06164 33591 ft 439 kts 338°
2026-05-04 19:53 62.05080 38.03215 33583 ft 439 kts 338°
2026-05-04 19:54 62.11019 38.00242 33586 ft 438 kts 338°
2026-05-04 19:54 62.16945 37.97269 33586 ft 437 kts 338°
2026-05-04 19:55 62.22869 37.94288 33581 ft 437 kts 338°
2026-05-04 19:55 62.28745 37.91320 33581 ft 437 kts 338°
2026-05-04 19:56 62.34655 37.88322 33577 ft 436 kts 338°
2026-05-04 19:56 62.40562 37.85313 33580 ft 436 kts 337°
2026-05-04 19:57 62.46466 37.82294 33609 ft 436 kts 337°
2026-05-04 19:57 62.52328 37.79284 33584 ft 436 kts 337°
2026-05-04 19:58 62.58225 37.76244 33585 ft 436 kts 337°
2026-05-04 19:58 62.64123 37.73187 33581 ft 435 kts 336°
2026-05-04 19:59 62.69916 37.69620 33578 ft 431 kts 333°
2026-05-04 19:59 62.75614 37.65800 33579 ft 431 kts 333°
2026-05-04 20:00 62.81357 37.61970 33575 ft 432 kts 333°
2026-05-04 20:00 62.87125 37.58159 33584 ft 434 kts 333°
2026-05-04 20:01 62.92908 37.54343 33592 ft 435 kts 333°
2026-05-04 20:01 62.98669 37.50529 33588 ft 436 kts 333°
2026-05-04 20:02 63.04483 37.46662 33584 ft 437 kts 333°
2026-05-04 20:02 63.10305 37.42772 33578 ft 438 kts 333°
2026-05-04 20:03 63.16137 37.38860 33581 ft 438 kts 333°
2026-05-04 20:03 63.21706 37.35109 33605 ft 439 kts 334°
2026-05-04 20:04 63.27536 37.31153 33578 ft 438 kts 333°
2026-05-04 20:04 63.33335 37.26980 33585 ft 438 kts 333°
2026-05-04 20:05 63.39133 37.22768 33588 ft 438 kts 333°
2026-05-04 20:05 63.44878 37.18501 33577 ft 437 kts 332°
2026-05-04 20:06 63.50604 37.13977 33572 ft 437 kts 331°
2026-05-04 20:06 63.56328 37.09422 33619 ft 436 kts 332°
2026-05-04 20:07 63.62063 37.04869 33583 ft 437 kts 332°
2026-05-04 20:07 63.67799 37.00312 33572 ft 437 kts 332°
2026-05-04 20:08 63.73493 36.95770 33585 ft 437 kts 332°
2026-05-04 20:08 63.79227 36.91176 33578 ft 437 kts 332°
2026-05-04 20:09 63.84961 36.86560 33579 ft 438 kts 332°
2026-05-04 20:09 63.90695 36.81928 33577 ft 437 kts 332°
2026-05-04 20:10 63.96387 36.77305 33578 ft 438 kts 332°
2026-05-04 20:10 64.02117 36.72631 33573 ft 437 kts 331°
2026-05-04 20:11 64.07837 36.67944 33574 ft 437 kts 331°
2026-05-04 20:11 64.13556 36.63237 33575 ft 437 kts 331°
2026-05-04 20:12 64.19261 36.58521 33577 ft 436 kts 331°
2026-05-04 20:12 64.24947 36.53800 33571 ft 436 kts 331°
2026-05-04 20:13 64.30658 36.49037 33589 ft 438 kts 331°
2026-05-04 20:13 64.36391 36.44237 33578 ft 439 kts 330°
2026-05-04 20:14 64.42125 36.39435 33572 ft 438 kts 330°
2026-05-04 20:14 64.47816 36.34652 33574 ft 438 kts 330°
2026-05-04 20:15 64.53540 36.29815 33576 ft 437 kts 330°
2026-05-04 20:15 64.59261 36.24960 33573 ft 437 kts 330°
2026-05-04 20:16 64.64905 36.19845 33610 ft 431 kts 325°
2026-05-04 20:16 64.70167 36.13470 33579 ft 428 kts 322°
2026-05-04 20:17 64.75440 36.06929 33583 ft 430 kts 323°
2026-05-04 20:17 64.80762 36.00487 33570 ft 431 kts 323°
2026-05-04 20:18 64.86090 35.94000 33600 ft 431 kts 323°
2026-05-04 20:18 64.91378 35.87492 33572 ft 432 kts 323°
2026-05-04 20:19 64.96701 35.80918 33607 ft 432 kts 323°
2026-05-04 20:19 65.02029 35.74313 33583 ft 433 kts 323°
2026-05-04 20:20 65.07159 35.67083 33563 ft 427 kts 318°
2026-05-04 20:20 65.12076 35.59404 33561 ft 426 kts 318°
2026-05-04 20:21 65.17045 35.51712 33563 ft 426 kts 318°
2026-05-04 20:21 65.24516 35.40237 33569 ft 426 kts 319°
2026-05-04 20:22 65.29505 35.32600 33579 ft 427 kts 319°
2026-05-04 20:22 65.34470 35.24980 33566 ft 427 kts 319°
2026-05-04 20:23 65.39465 35.17273 33571 ft 427 kts 319°
2026-05-04 20:23 65.44457 35.09532 33565 ft 427 kts 319°
2026-05-04 20:24 65.49445 35.01758 33585 ft 427 kts 319°
2026-05-04 20:24 65.54400 34.94002 33571 ft 427 kts 319°
2026-05-04 20:25 65.59383 34.86165 33565 ft 427 kts 318°
2026-05-04 20:25 65.64356 34.78309 33511 ft 425 kts 318°
2026-05-04 20:26 65.66816 34.74415 33147 ft 419 kts 318°
2026-05-04 20:26 65.69236 34.70581 32735 ft 413 kts 318°
2026-05-04 20:26 65.71585 34.66844 32370 ft 407 kts 318°
2026-05-04 20:26 65.73943 34.63081 31948 ft 403 kts 317°
2026-05-04 20:27 65.76272 34.59352 31556 ft 399 kts 317°
2026-05-04 20:27 65.78581 34.55648 31160 ft 395 kts 317°
2026-05-04 20:27 65.80921 34.52129 30729 ft 399 kts 324°
2026-05-04 20:27 65.83541 34.49595 30247 ft 409 kts 333°
2026-05-04 20:28 65.86227 34.47474 29769 ft 402 kts 333°
2026-05-04 20:28 65.88875 34.45395 29106 ft 398 kts 332°
2026-05-04 20:28 65.91464 34.43340 28296 ft 397 kts 332°
2026-05-04 20:28 65.94091 34.41225 27641 ft 398 kts 332°
2026-05-04 20:29 65.96717 34.39093 27118 ft 396 kts 332°
2026-05-04 20:29 65.99319 34.36970 26693 ft 393 kts 332°
2026-05-04 20:29 66.01899 34.34856 26285 ft 389 kts 332°
2026-05-04 20:29 66.04453 34.32756 25900 ft 385 kts 332°
2026-05-04 20:30 66.06983 34.30670 25523 ft 382 kts 332°
2026-05-04 20:30 66.09487 34.28597 25149 ft 378 kts 332°
2026-05-04 20:30 66.11976 34.26532 24772 ft 376 kts 332°
2026-05-04 20:30 66.14409 34.24508 24400 ft 373 kts 332°
2026-05-04 20:31 66.16858 34.22467 24038 ft 370 kts 332°
2026-05-04 20:31 66.19285 34.20439 23672 ft 367 kts 332°
2026-05-04 20:31 66.21702 34.18416 23308 ft 365 kts 332°
2026-05-04 20:31 66.24101 34.16404 22903 ft 363 kts 332°
2026-05-04 20:32 66.26484 34.14401 22487 ft 360 kts 332°
2026-05-04 20:32 66.28849 34.12412 22155 ft 357 kts 332°
2026-05-04 20:32 66.31193 34.10435 21758 ft 355 kts 333°
2026-05-04 20:32 66.33495 34.08489 21392 ft 352 kts 333°
2026-05-04 20:33 66.35804 34.06535 21035 ft 349 kts 333°
2026-05-04 20:33 66.38091 34.04596 20687 ft 346 kts 333°
2026-05-04 20:33 66.40364 34.02663 20334 ft 344 kts 333°
2026-05-04 20:33 66.42619 34.00744 19991 ft 341 kts 333°
2026-05-04 20:34 66.44855 33.98835 19646 ft 339 kts 333°
2026-05-04 20:34 66.47077 33.96935 19305 ft 336 kts 333°
2026-05-04 20:34 66.49286 33.95042 18963 ft 334 kts 333°
2026-05-04 20:34 66.51480 33.93159 18624 ft 332 kts 334°
2026-05-04 20:35 66.53660 33.91284 18288 ft 331 kts 334°
2026-05-04 20:35 66.55802 33.89438 17982 ft 329 kts 334°
2026-05-04 20:35 66.57964 33.87572 17602 ft 328 kts 335°
2026-05-04 20:35 66.60115 33.85713 17230 ft 326 kts 335°
2026-05-04 20:36 66.62250 33.83865 16893 ft 323 kts 335°
2026-05-04 20:36 66.64362 33.82034 16557 ft 320 kts 335°
2026-05-04 20:36 66.66465 33.80207 16240 ft 318 kts 335°
2026-05-04 20:36 66.68550 33.78392 15903 ft 316 kts 335°
2026-05-04 20:37 66.70625 33.76582 15538 ft 315 kts 335°
2026-05-04 20:37 66.72661 33.74802 15230 ft 313 kts 336°
2026-05-04 20:37 66.74711 33.73007 14915 ft 311 kts 336°
2026-05-04 20:37 66.76746 33.71223 14600 ft 309 kts 336°
2026-05-04 20:38 66.78770 33.69445 14283 ft 307 kts 336°
2026-05-04 20:38 66.80781 33.67675 13969 ft 305 kts 336°
2026-05-04 20:38 66.82781 33.65913 13638 ft 304 kts 336°
2026-05-04 20:38 66.84797 33.64128 12899 ft 309 kts 336°
2026-05-04 20:39 66.86839 33.62318 12174 ft 312 kts 337°
2026-05-04 20:39 66.88856 33.60532 11596 ft 310 kts 337°
2026-05-04 20:39 66.90898 33.58719 11144 ft 312 kts 338°
2026-05-04 20:39 66.92947 33.56899 10784 ft 310 kts 338°
2026-05-04 20:40 66.94979 33.55090 10455 ft 308 kts 338°
2026-05-04 20:40 66.96996 33.53292 10122 ft 306 kts 338°
2026-05-04 20:40 66.98996 33.51506 9866 ft 302 kts 338°
2026-05-04 20:40 67.00946 33.49763 9746 ft 292 kts 338°
2026-05-04 20:41 67.02841 33.48067 9617 ft 284 kts 338°
2026-05-04 20:41 67.04691 33.46406 9377 ft 281 kts 339°
2026-05-04 20:41 67.06499 33.44777 9127 ft 278 kts 339°
2026-05-04 20:41 67.08320 33.43135 8830 ft 276 kts 339°
2026-05-04 20:42 67.10128 33.41501 8547 ft 275 kts 339°
2026-05-04 20:42 67.11924 33.39877 8274 ft 273 kts 339°
2026-05-04 20:42 67.13706 33.38263 8019 ft 271 kts 339°
2026-05-04 20:42 67.15504 33.36630 7771 ft 276 kts 339°
2026-05-04 20:43 67.17325 33.34975 7519 ft 279 kts 339°
2026-05-04 20:43 67.19156 33.33309 7265 ft 279 kts 339°
2026-05-04 20:43 67.20977 33.31649 7006 ft 277 kts 339°
2026-05-04 20:43 67.22771 33.30012 6745 ft 276 kts 339°
2026-05-04 20:44 67.24578 33.28361 6480 ft 275 kts 339°
2026-05-04 20:44 67.26373 33.26718 6219 ft 273 kts 339°
2026-05-04 20:44 67.28157 33.25082 5972 ft 271 kts 340°
2026-05-04 20:44 67.29930 33.23454 5698 ft 270 kts 339°
2026-05-04 20:45 67.31690 33.21835 5431 ft 268 kts 339°
2026-05-04 20:45 67.33450 33.20212 5164 ft 267 kts 339°
2026-05-04 20:45 67.35199 33.18598 4903 ft 266 kts 339°
2026-05-04 20:45 67.36941 33.16988 4652 ft 266 kts 339°
2026-05-04 20:46 67.38662 33.15395 4397 ft 266 kts 339°
2026-05-04 20:46 67.40401 33.13783 4132 ft 265 kts 339°
2026-05-04 20:46 67.42140 33.12169 3870 ft 266 kts 339°
2026-05-04 20:46 67.43877 33.10553 3606 ft 266 kts 339°
2026-05-04 20:47 67.45630 33.08921 3353 ft 268 kts 339°
2026-05-04 20:47 67.47357 33.07311 3312 ft 260 kts 339°
2026-05-04 20:47 67.49122 33.06415 2992 ft 261 kts
2026-05-04 20:47 67.50786 33.07907 2968 ft 251 kts 33°
2026-05-04 20:48 67.52195 33.10518 2911 ft 253 kts 41°
2026-05-04 20:48 67.53551 33.13344 2780 ft 245 kts 42°
2026-05-04 20:48 67.54836 33.16018 2709 ft 226 kts 42°
2026-05-04 20:48 67.55968 33.18541 2677 ft 201 kts 56°
2026-05-04 20:49 67.56364 33.21646 2704 ft 174 kts 107°
2026-05-04 20:49 67.55980 33.24546 2708 ft 167 kts 117°
2026-05-04 20:49 67.55503 33.27176 2703 ft 151 kts 128°
2026-05-04 20:49 67.54977 33.29452 2695 ft 142 kts 127°
2026-05-04 20:50 67.54408 33.31494 2691 ft 138 kts 131°
2026-05-04 20:50 67.53815 33.33481 2715 ft 140 kts 133°
2026-05-04 20:50 67.53211 33.35484 2607 ft 140 kts 131°
2026-05-04 20:50 67.52610 33.37482 2417 ft 141 kts 131°
2026-05-04 20:51 67.52005 33.39498 2223 ft 141 kts 132°
2026-05-04 20:51 67.51395 33.41518 2029 ft 143 kts 130°
2026-05-04 20:51 67.50775 33.43587 1795 ft 146 kts 129°
2026-05-04 20:51 67.50149 33.45659 1621 ft 143 kts 128°
2026-05-04 20:52 67.49525 33.47732 1373 ft 147 kts 126°
2026-05-04 20:52 67.48915 33.49779 1175 ft 142 kts 128°
2026-05-04 20:52 67.48318 33.51783 994 ft 139 kts 128°
2026-05-04 20:52 67.47727 33.53748 811 ft 137 kts 127°
2026-05-04 20:53 67.47143 33.55693 645 ft 136 kts 128°
2026-05-04 20:53 67.46572 33.57607 534 ft 125 kts 128°
2026-05-04 20:53 67.46125 33.59070 533 ft 81 kts 129°
2026-05-04 20:53 67.45872 33.59908 531 ft 37 kts 128°
2026-05-04 20:54 67.45774 33.60233 536 ft 16 kts 130°
2026-05-04 20:54 67.45706 33.60457 537 ft 16 kts 128°
2026-05-04 20:54 67.45631 33.60657 536 ft 14 kts 146°
2026-05-04 20:54 67.45579 33.60788 534 ft 10 kts 72°
2026-05-04 20:55 67.45602 33.60794 535 ft 4 kts 330°
2026-05-04 20:55 67.45629 33.60703 535 ft 11 kts 307°
2026-05-04 20:55 67.45698 33.60468 537 ft 21 kts 307°
2026-05-04 20:55 67.45794 33.60162 533 ft 22 kts 310°
2026-05-04 20:56 67.45888 33.59853 533 ft 21 kts 308°
2026-05-04 20:56 67.45980 33.59554 535 ft 21 kts 308°
2026-05-04 20:56 67.46066 33.59265 535 ft 20 kts 306°
2026-05-04 20:56 67.46152 33.58982 534 ft 20 kts 308°
2026-05-04 20:57 67.46215 33.58771 534 ft 9 kts 304°
2026-05-04 20:57 67.46198 33.58627 534 ft 10 kts 224°
2026-05-04 20:57 67.46152 33.58525 534 ft 5 kts 218°
2026-05-04 20:57 67.46127 33.58474 534 ft 5 kts 218°
2026-05-04 20:58 67.46108 33.58411 534 ft 4 kts 247°
2026-05-04 20:58 67.46111 33.58334 536 ft 4 kts 296°
2026-05-04 20:58 67.46129 33.58269 536 ft 4 kts 305°
2026-05-04 20:58 67.46129 33.58194 536 ft 4 kts 243°
2026-05-04 20:59 67.46106 33.58140 536 ft 5 kts 219°
2026-05-04 20:59 67.46077 33.58113 533 ft 5 kts 170°
2026-05-04 20:59 67.46057 33.58157 534 ft 3 kts 133°
2026-05-04 20:59 67.46052 33.58174 534 ft 0 kts 132°